This is the latest recevied weather packets stored in our database for station/object EA2MKR. If no packets are shown the sender has not sent any weather packets the latest 10 day(s).
| Time | Temp. | Humidity | Pressure | Rain* | Wind** | Luminosity | Snow |
|---|---|---|---|---|---|---|---|
| 1788513021 | 24.44° C | 41% | 959.9 hPa | 0 mm | - | - | - |
| 1788512597 | 24.44° C | 41% | 960 hPa | 0 mm | - | - | - |
| 1788512297 | 23.89° C | 42% | 960 hPa | 0 mm | - | - | - |
| 1788511997 | 23.33° C | 44% | 959.9 hPa | 0 mm | - | - | - |
| 1788511697 | 23.33° C | 46% | 960 hPa | 0 mm | - | - | - |
| 1788511396 | 22.78° C | 46% | 960 hPa | 0 mm | - | - | - |
| 1788511097 | 22.78° C | 46% | 960 hPa | 0 mm | - | - | - |
| 1788510796 | 22.78° C | 48% | 959.9 hPa | 0 mm | - | - | - |
| 1788510621 | 22.22° C | 48% | 959.9 hPa | 0 mm | - | - | - |
| 1788510196 | 21.67° C | 47% | 960 hPa | 0 mm | - | - | - |
| 1788509896 | 21.67° C | 48% | 959.9 hPa | 0 mm | - | - | - |
| 1788509597 | 21.11° C | 52% | 959.9 hPa | 0 mm | - | - | - |
| 1788509420 | 21.11° C | 52% | 959.9 hPa | 0 mm | - | - | - |
| 1788509120 | 20.56° C | 55% | 959.8 hPa | 0 mm | - | - | - |
| 1788508695 | 20.56° C | 58% | 959.9 hPa | 0 mm | - | - | - |
| 1788508520 | 20° C | 60% | 959.8 hPa | 0 mm | - | - | - |
| 1788508220 | 19.44° C | 63% | 959.8 hPa | 0 mm | - | - | - |
| 1788507796 | 19.44° C | 66% | 959.7 hPa | 0 mm | - | - | - |
| 1788507496 | 18.89° C | 67% | 959.8 hPa | 0 mm | - | - | - |
| 1788507319 | 18.33° C | 59% | 959.8 hPa | 0 mm | - | - | - |
| 1788506895 | 17.78° C | 73% | 959.7 hPa | 0 mm | - | - | - |
| 1788506595 | 16.67° C | 76% | 959.8 hPa | 0 mm | - | - | - |
| 1788506295 | 16.11° C | 76% | 959.9 hPa | 0 mm | - | - | - |
| 1788505995 | 15.56° C | 78% | 959.8 hPa | 0 mm | - | - | - |
| 1788505694 | 15° C | 79% | 959.8 hPa | 0 mm | - | - | - |
* Rain latest hour (hover to see other rain measurements)
** Current wind speed in m/s (hover to see current wind gust speed)